TITAN 3C TRANSTAGE DEB, 3488

Orbit data source: Space-Track

TITAN 3C TRANSTAGE DEB, 3488 is space debris in LEO originally from a launch on Fri, 15 Oct 1965 UTC launched from the Air Force Eastern Test Range (AFETR). Debris objects in space refer to the collection of defunct objects orbiting the Earth. Examples of debris include non-operational satellites, rocket bodies, and fragments generated from explosions, collisions, or faulty payload assembly.

Loading next visibility...
Identifier
3488, 1965-082QJ
Orbit
LEO
Country
Flag of USUS
Related business
Manufacturer
Unknown
Mission
Spacecraft
Bus & Motor
Unknown
Mass
Unknown
Launch date (UTC)
1965-10-15 (60 years ago)
Launch vehicle
Unknown
Launch site
Air Force Eastern Test Range (AFETR)
Object type
Payload
Rocket body
Debris
Shape & HBR
Unknown shape, 0.2 m
Radar Cross Section
Small (<0.1 m²)

Expand to show TLE details & history
Last TLE update: 19 hours ago

TLE from 19 hours ago
0 TITAN 3C TRANSTAGE DEB
1 03488U 65082QJ  26033.53042650  .00002207  00000-0  28990-3 0  9995
2 03488  32.2278 145.4120 0023953 299.6700  60.1567 14.78489342177977
Epoch: 2026-02-02T12:43Z
TLE epoch observation values (Epoch: 2026-02-02T12:43:48.849Z)
Latitude
-0.00003°
Longitude
-178.26598°
Altitude
624.42 km
Speed
7.553 km/s
True Right ascension
09h 41m 38s
True Declination
0° 00' 00"
Sunlit
Object was in full shadow at epoch
Visualization orbit readout
Latitude
Unknown
Longitude
Unknown
Altitude
Unknown
Speed
Unknown
Apparent Right ascension
Unknown
Apparent Declination
Unknown
Sunlit
N/A
Visualization observer readout
Local Sidereal Time
09:43:30
Azimuth
Unknown
Elevation
Unknown
Doppler factor
Unknown
Orbital elements
Apogee altitude
654.509 km
Perigee altitude
620.899 km
Semi-major axis
7,015.841 km
Eccentricity
0.0024
Inclination
32.2278°
RAAN
145.412°
Arg. of periapsis
299.67°
True anomaly
60.39514°
Mean anomaly
60.1567°
Eccentric anomaly
60.27588°
Mean motion
3.69338 °/min
Orbital period
97.47 mins
BSTAR
0.0002899

Documentation

Showing up to 5 results
|